This demonstration page uses our WeatherBlox Daily Observations layout. Learn more.

Left ArrowRight Arrow

Hourly Observations for April 17, 2021

Temp ( °F °C ) Dew Point ( °F °C ) Humidity (%) Winds ( mph kmh ) Pressure ( in mb ) Visibility ( mi km ) Precip ( " mm )
12:53 am 00:53 Clear 39 3.9 37 2.8 93 93 Calm 29.92 1013 10 16.0934 0 0
1:53 am 01:53 Clear 39 3.9 37 2.8 93 93 Calm 29.92 1013 10 16.0934 0 0
2:53 am 02:53 Clear 38 3.3 37 2.8 97 97 Calm 29.91 1013 10 16.0934 0 0
3:53 am 03:53 Clear 39 3.9 37 2.8 93 93 Calm 29.91 1013 10 16.0934 0 0
4:53 am 04:53 Clear 41 5 40 4.4 96 96 Calm 29.9 1013 10 16.0934 0 0
5:53 am 05:53 Clear 42 5.6 40 4.4 92 92 Calm 29.9 1012 10 16.0934 0 0
6:53 am 06:53 Clear 42 5.6 40 4.4 92 92 Calm 29.9 1013 10 16.0934 0 0
7:53 am 07:53 Partly Cloudy 43 6.1 41 5 93 93 Calm 29.91 1013 7 11.26538 0 0
8:53 am 08:53 Mostly Sunny 46 7.8 41 5 83 83 NNW 3 6 29.92 1013 10 16.0934 0 0
9:53 am 09:53 Cloudy 48 8.9 40 4.4 74 74 Calm 29.92 1013 10 16.0934 0 0
10:53 am 10:53 Partly Cloudy 51 10.6 41 5 69 69 VRB 3 6 29.92 1013 10 16.0934 0.001 0.001
11:53 am 11:53 Mostly Cloudy 55 12.8 43 6.1 64 64 VRB 3 6 29.93 1013 10 16.0934 0 0
12:53 pm 12:53 Cloudy with Light Rain 55 12.8 46 7.8 72 72 W 8 13 29.93 1013 9 14.48406 0.001 0.001
1:53 pm 13:53 Cloudy with Light Rain 51 10.6 45 7.2 80 80 WNW 6 9 29.93 1014 7 11.26538 0.001 0.001
2:53 pm 14:53 Cloudy with Light Rain 51 10.6 46 7.8 83 83 NW 5 7 29.93 1014 8 12.87472 0.01 0.254
3:53 pm 15:53 Cloudy 53 11.7 45 7.2 74 74 W 3 6 29.92 1013 10 16.0934 0.01 0.254
4:53 pm 16:53 Cloudy 54 12.2 43 6.1 67 67 W 7 11 29.91 1013 10 16.0934 0.01 0.254
5:53 pm 17:53 Cloudy 54 12.2 43 6.1 67 67 Calm 29.91 1013 10 16.0934 0 0
6:53 pm 18:53 Cloudy 54 12.2 44 6.7 69 69 Calm 29.91 1013 10 16.0934 0 0
7:53 pm 19:53 Sunny 53 11.7 43 6.1 69 69 Calm 29.91 1013 10 16.0934 0 0
8:53 pm 20:53 Clear 44 6.7 42 5.6 93 93 Calm 29.92 1013 10 16.0934 0 0
9:53 pm 21:53 Clear 41 5 39 3.9 93 93 Calm 29.94 1014 10 16.0934 0 0
10:53 pm 22:53 Clear 39 3.9 38 3.3 96 96 Calm 29.94 1014 10 16.0934 0 0
11:53 pm 23:53 Clear 38 3.3 37 2.8 97 97 Calm 29.94 1014 7 11.26538 0 0

Powered by AerisWeather